Location: Newark
(43.9494°N, 6.8108°E)
Time: 11:38:21
(UTC+00:00)

A-11 Canister half - Pass Details

Date: 29 October 2019
Orbit: 1514 x 1686 km, 47.2° (Epoch: 12 November)

Event Time Altitude Azimuth Distance (km) Brightness Sun altitude
Rises 00:20:29 0° 250° (WSW) 4,927 - -56.4°
Reaches altitude 10° 00:23:40 10° 251° (WSW) 3,930 - -56.1°
Maximum altitude 00:33:48 86° 340° (NNW) 1,650 - -55.2°
Exits shadow 00:40:46 23° 71° (ENE) 2,948 10.6 -54.4°
Drops below altitude 10° 00:43:38 10° 72° (ENE) 3,817 11.4 -54.1°
Sets 00:46:41 0° 73° (ENE) 4,780 12.0 -53.8°
